Meteo Giornale » Osservazioni meteo Stati Uniti (USA) » Ramona

ore: 12:53 - Osservazioni Meteo Ramona
Lat. 33° 2' N Lon. 116° 54' W Alt. 424 metri s.l.m.

sereno

31 °C

Sereno

Temp. 24 Ore

12 °C

32 °C

Ovest

14.8 Km/h

Dew point 11 °C

Umidità 29 %

Visibilità  10 Km

Il sole sorge alle ore 06:22

Il sole tramonta alle ore 19:12

Data e Ora Cielo e Fenomeni T °C DP °C Um. % Pres. hPa Vis. km Vento km/h
Oggi h: 12:53 sereno Sereno 31 11 29 1015 10 O 14.8
Oggi h: 11:53 sereno Sereno 29 14 39 1016 10 O 9.3
Oggi h: 10:53 sereno Sereno 28 12 37 1016 10 N 11.1
Oggi h: 09:53 sereno Sereno 24 15 57 1016 10 NO 11.1
Oggi h: 08:53 sereno Sereno 22 12 53 1016 10 O/NO 7.4
Oggi h: 07:53 sereno Sereno 15 14 93 1016 10 N 0
Oggi h: 06:53 poco_nuvoloso Poco Nuvoloso 12 12 100 1015 10 N 5.5
Oggi h: 06:44 nuvoloso Nuvoloso 12 11 93 1015 10 N 5.5
Oggi h: 06:17 coperto Coperto 12 12 100 1015 13 N 0
Oggi h: 06:10 foschia Foschia 13 13 100 1015 3 N 0
Oggi h: 06:08 foschia Foschia 13 13 100 1015 2 N 0
Oggi h: 05:53 nebbia Nebbia 13 13 100 1015 2 N 0
Oggi h: 05:24 nebbia Nebbia 13 13 100 1015 2 N 5.5
Oggi h: 05:09 nebbia Nebbia 13 13 100 1015 0 N 5.5
Oggi h: 04:53 nebbia Nebbia 14 13 93 1015 2 N 0
Oggi h: 04:45 nebbia Nebbia 13 13 100 1015 2 N 0
Oggi h: 04:40 foschia Foschia 14 13 93 1015 2 N 0
Oggi h: 04:25 molto_nuvoloso Molto Nuvoloso 13 12 93 1015 10 N 0
Oggi h: 04:17 nuvoloso Nuvoloso 12 11 93 1015 10 N 0
Oggi h: 03:53 sereno Sereno 12 11 93 1015 10 N 0
Oggi h: 02:53 sereno Sereno 14 12 87 1015 10 N 0
Oggi h: 01:53 sereno Sereno 14 12 87 1015 10 N 0
Oggi h: 00:53 sereno Sereno 15 13 87 1015 10 N 0
Ieri h: 23:53 sereno Sereno 16 13 82 1015 10 N 0
Ieri h: 22:53 sereno Sereno 16 13 82 1015 10 N 5.5
Ieri h: 21:53 sereno Sereno 19 14 72 1015 10 N 0
Ieri h: 20:53 sereno Sereno 19 15 77 1015 10 NO 7.4
Ieri h: 18:53 sereno Sereno 24 14 53 1013 10 O 11.1
Ieri h: 17:53 sereno Sereno 27 12 39 1013 10 O 16.7
Ieri h: 16:53 poco_nuvoloso Poco Nuvoloso 28 14 42 1013 10 O 20.3
Ieri h: 15:53 poco_nuvoloso Poco Nuvoloso 29 14 39 1013 10 O 18.5
Ieri h: 13:53 sereno Sereno 32 15 35 1014 10 O/NO 20.3